Flag for Germany Weather past 2 weeks in Kaufbeuren, Bavaria, Germany

Now
43 °F

Quite cool.


Feels Like: 34 °F
Forecast: 33 / 42 °F
Wind: 18 mph from West

Location: Altenstadt Airport

Current Time: Dec 20, 2014 at 10:13:13 AM

Latest Report: Dec 20, 2014 at 9:20 AM


Visibility: N/A

Pressure: 30.24 "Hg

Humidity: 81%

Dew point: 37 °F

Location of KaufbeurenLocation

Historic Weather in Kaufbeuren — Graph

°F

Kaufbeuren temperature yesterday

Maximum temperature yesterday: 52 °F (at 12:20 PM)
Minimum temperature yesterday: 43 °F (at 11:20 PM)
Average temperature yesterday: 48 °F

Past Weeks' High & Low Weather Summary

 TemperatureHumidityPressure
High52 °F (Dec 19, 12:20 PM)100% (Dec 5, 8:20 AM)30.36 "Hg (Dec 5, 8:20 AM)
Low21 °F (Dec 10, 6:20 AM)50% (Dec 13, 2:20 PM)29.77 "Hg (Dec 12, 10:20 PM)
Average38 °F86%30.04 "Hg
* Reported Dec 5 8:20 AM — Dec 20 8:20 AM, Kaufbeuren, Weather by CustomWeather, © 2014

Note: Actual official high and low records may vary slightly from our data, if they occured in-between our weather recording intervals... More about our weather records

Advertising

Kaufbeuren weather history for previous 24 hours

 ConditionsComfort  
Time TempWeatherWind HumidityBarometerVisibility
8:20 AM
Dec 20
41 °FQuite cool.18 mph87%30.24 "HgN/A
7:20 AM39 °FChilly.5 mph93%30.24 "HgN/A
6:20 AM41 °FQuite cool.8 mph87%30.24 "HgN/A
5:20 AM41 °FQuite cool.14 mph87%30.21 "HgN/A
4:20 AM41 °FQuite cool.13 mph93%30.21 "HgN/A
3:20 AM41 °FQuite cool.10 mph93%30.21 "HgN/A
2:20 AM43 °FQuite cool.21 mph87%30.18 "HgN/A
1:20 AM43 °FQuite cool.16 mph100%30.18 "HgN/A
12:20 AM43 °FQuite cool.21 mph93%30.15 "HgN/A
11:20 PM
Dec 19
43 °FQuite cool.26 mph93%30.15 "HgN/A
10:20 PM45 °FQuite cool.31 mph87%30.12 "HgN/A
9:20 PM46 °FCool.26 mph87%30.09 "HgN/A
8:20 PM48 °FPassing clouds.26 mph71%30.07 "HgN/A
7:20 PM50 °FPassing clouds.29 mph62%30.07 "HgN/A
6:20 PM50 °FPassing clouds.30 mph58%30.04 "HgN/A
5:20 PM50 °FPassing clouds.26 mph58%30.04 "HgN/A
4:20 PM52 °FPartly sunny.28 mph54%30.04 "HgN/A
3:20 PM52 °FPartly sunny.26 mph54%30.07 "HgN/A
2:20 PM52 °FBroken clouds.29 mph58%30.07 "HgN/A
1:20 PM52 °FScattered clouds.31 mph62%30.07 "HgN/A
12:20 PM52 °FScattered clouds.25 mph67%30.09 "HgN/A
11:20 AM50 °FScattered clouds.22 mph76%30.09 "HgN/A
10:20 AM50 °FPassing clouds.29 mph76%30.09 "HgN/A
Weather by CustomWeather, © 2014

See weather overviewHow to use our weather pages